Time,TemperatureF,DewpointF,PressureIn,WindDirection,WindDirectionDegrees,WindSpeedMPH,WindSpeedGustMPH,Humidity,HourlyPrecipIn,Conditions,Clouds,dailyrainin,SoftwareType,DateUTC
2013-08-06 00:00:00,70.0,68.5,29.78,West,280,0.0,1.0,95,0.00,,,0.75,VWS V14.01,2013-08-06 05:00:00,
2013-08-06 00:01:00,68.5,67.6,29.79,West,278,0.0,0.0,97,0.00,,,0.00,VWS V14.01,2013-08-06 05:01:00,
2013-08-06 00:06:00,68.6,68.0,29.79,West,278,0.0,0.0,98,0.00,,,0.00,VWS V14.01,2013-08-06 05:06:00,
2013-08-06 00:11:00,68.7,68.1,29.79,West,278,0.0,0.0,98,0.00,,,0.00,VWS V14.01,2013-08-06 05:11:00,
2013-08-06 00:16:00,68.8,68.2,29.79,West,278,0.0,0.0,98,0.00,,,0.00,VWS V14.01,2013-08-06 05:16:00,
2013-08-06 00:21:00,68.9,68.3,29.79,West,278,0.0,0.0,98,0.00,,,0.00,VWS V14.01,2013-08-06 05:21:00,
2013-08-06 00:26:00,69.0,68.4,29.79,West,278,0.0,0.0,98,0.00,,,0.00,VWS V14.01,2013-08-06 05:26:00,
2013-08-06 00:30:00,69.2,67.7,29.77,West,280,0.0,0.0,95,0.00,,,0.75,VWS V14.01,2013-08-06 05:30:00,
2013-08-06 00:31:00,69.0,68.4,29.79,West,278,0.0,0.0,98,0.00,,,0.00,VWS V14.01,2013-08-06 05:31:00,
2013-08-06 00:36:00,68.9,68.3,29.79,West,278,0.0,0.0,98,0.00,,,0.00,VWS V14.01,2013-08-06 05:36:00,
2013-08-06 00:41:00,68.8,68.2,29.79,West,278,0.0,0.0,98,0.00,,,0.00,VWS V14.01,2013-08-06 05:41:00,
2013-08-06 00:46:00,68.8,68.2,29.79,West,278,0.0,0.0,98,0.00,,,0.00,VWS V14.01,2013-08-06 05:46:00,
2013-08-06 00:51:00,68.7,68.1,29.79,West,278,0.0,0.0,98,0.00,,,0.00,VWS V14.01,2013-08-06 05:51:00,
2013-08-06 00:56:00,68.5,67.9,29.79,West,278,0.0,0.0,98,0.00,,,0.00,VWS V14.01,2013-08-06 05:56:00,
2013-08-06 01:00:00,68.5,67.6,29.79,West,278,0.0,0.0,97,0.00,,,0.00,VWS V14.01,2013-08-06 06:00:00,
2013-08-06 01:01:00,68.4,67.8,29.79,West,278,0.0,0.0,98,0.00,,,0.00,VWS V14.01,2013-08-06 06:01:00,
2013-08-06 01:06:00,68.3,67.7,29.80,West,278,0.0,0.0,98,0.00,,,0.00,VWS V14.01,2013-08-06 06:06:00,
2013-08-06 01:11:00,68.4,67.8,29.79,West,278,0.0,0.0,98,0.00,,,0.00,VWS V14.01,2013-08-06 06:11:00,
2013-08-06 01:16:00,68.4,67.8,29.79,West,278,0.0,0.0,98,0.00,,,0.00,VWS V14.01,2013-08-06 06:16:00,
2013-08-06 01:21:00,68.6,68.3,29.79,West,278,0.0,0.0,99,0.00,,,0.00,VWS V14.01,2013-08-06 06:21:00,
2013-08-06 01:26:00,68.5,67.9,29.79,West,278,0.0,0.0,98,0.00,,,0.00,VWS V14.01,2013-08-06 06:26:00,
2013-08-06 01:30:00,68.9,68.3,29.79,West,278,0.0,0.0,98,0.00,,,0.00,VWS V14.01,2013-08-06 06:30:00,
2013-08-06 01:31:00,68.6,68.3,29.79,West,278,0.0,0.0,99,0.00,,,0.00,VWS V14.01,2013-08-06 06:31:00,
2013-08-06 01:36:00,68.8,68.5,29.79,West,278,0.0,0.0,99,0.00,,,0.00,VWS V14.01,2013-08-06 06:36:00,
2013-08-06 01:41:00,67.9,67.0,29.79,West,278,0.0,0.0,97,0.00,,,0.00,VWS V14.01,2013-08-06 06:41:00,
2013-08-06 01:46:00,66.6,65.4,29.79,West,278,0.0,0.0,96,0.00,,,0.00,VWS V14.01,2013-08-06 06:46:00,
2013-08-06 01:51:00,66.0,65.1,29.79,West,278,0.0,0.0,97,0.00,,BKN002,0.00,VWS V14.01,2013-08-06 06:51:00,
2013-08-06 01:56:00,65.7,64.8,29.78,West,278,0.0,0.0,97,0.00,,BKN002,0.00,VWS V14.01,2013-08-06 06:56:00,
2013-08-06 02:00:00,68.4,67.8,29.79,West,278,0.0,0.0,98,0.00,,,0.00,VWS V14.01,2013-08-06 07:00:00,
2013-08-06 02:01:00,65.7,65.1,29.78,West,277,0.0,0.0,98,0.00,,,0.00,VWS V14.01,2013-08-06 07:01:00,
2013-08-06 02:06:00,65.5,64.9,29.78,West,277,0.0,0.0,98,0.00,,,0.00,VWS V14.01,2013-08-06 07:06:00,
2013-08-06 02:11:00,65.6,65.0,29.78,West,277,0.0,0.0,98,0.00,,,0.00,VWS V14.01,2013-08-06 07:11:00,
2013-08-06 02:16:00,66.1,65.8,29.78,West,277,0.0,0.0,99,0.00,,,0.00,VWS V14.01,2013-08-06 07:16:00,
2013-08-06 02:21:00,66.8,66.5,29.78,West,277,0.0,0.0,99,0.00,,,0.00,VWS V14.01,2013-08-06 07:21:00,
2013-08-06 02:26:00,67.3,67.0,29.78,West,277,0.0,0.0,99,0.00,,,0.00,VWS V14.01,2013-08-06 07:26:00,
2013-08-06 02:30:00,68.6,68.3,29.79,West,278,0.0,0.0,99,0.00,,,0.00,VWS V14.01,2013-08-06 07:30:00,
2013-08-06 02:31:00,67.1,66.8,29.78,West,277,0.0,0.0,99,0.00,,,0.00,VWS V14.01,2013-08-06 07:31:00,
2013-08-06 02:36:00,66.8,66.5,29.78,West,276,1.0,1.0,99,0.00,,,0.00,VWS V14.01,2013-08-06 07:36:00,
2013-08-06 02:41:00,66.9,66.6,29.78,West,276,0.0,1.0,99,0.00,,,0.00,VWS V14.01,2013-08-06 07:41:00,
2013-08-06 02:46:00,66.9,66.6,29.77,West,276,0.0,1.0,99,0.00,,,0.00,VWS V14.01,2013-08-06 07:46:00,
2013-08-06 02:51:00,67.0,66.7,29.77,West,276,0.0,1.0,99,0.00,,,0.00,VWS V14.01,2013-08-06 07:51:00,
2013-08-06 02:56:00,67.1,66.8,29.78,West,277,0.0,1.0,99,0.00,,,0.00,VWS V14.01,2013-08-06 07:56:00,
2013-08-06 03:00:00,65.7,65.1,29.78,West,277,0.0,1.0,98,0.00,,,0.00,VWS V14.01,2013-08-06 08:00:00,
2013-08-06 03:01:00,66.9,66.6,29.78,West,276,0.0,0.0,99,0.00,,,0.00,VWS V14.01,2013-08-06 08:01:00,
2013-08-06 03:06:00,66.8,66.5,29.77,West,276,0.0,0.0,99,0.00,,,0.00,VWS V14.01,2013-08-06 08:06:00,
2013-08-06 03:11:00,66.6,66.3,29.77,West,275,0.0,0.0,99,0.00,,,0.00,VWS V14.01,2013-08-06 08:11:00,
2013-08-06 03:16:00,66.6,66.3,29.77,West,275,0.0,0.0,99,0.01,,,0.01,VWS V14.01,2013-08-06 08:16:00,
2013-08-06 03:21:00,66.6,66.3,29.77,West,276,0.0,0.0,99,0.01,,,0.01,VWS V14.01,2013-08-06 08:21:00,
2013-08-06 03:26:00,66.6,66.3,29.76,West,276,0.0,0.0,99,0.01,,,0.01,VWS V14.01,2013-08-06 08:26:00,
2013-08-06 03:30:00,67.1,66.8,29.78,West,277,0.0,0.0,99,0.00,,,0.00,VWS V14.01,2013-08-06 08:30:00,
2013-08-06 03:31:00,66.5,66.2,29.76,West,275,0.0,0.0,99,0.01,,,0.01,VWS V14.01,2013-08-06 08:31:00,
2013-08-06 03:36:00,66.8,66.5,29.77,West,276,0.0,0.0,99,0.01,,,0.01,VWS V14.01,2013-08-06 08:36:00,
2013-08-06 03:41:00,66.3,66.0,29.77,West,276,0.0,0.0,99,0.01,,,0.01,VWS V14.01,2013-08-06 08:41:00,
2013-08-06 03:46:00,66.7,66.4,29.76,West,276,0.0,0.0,99,0.01,,,0.01,VWS V14.01,2013-08-06 08:46:00,
2013-08-06 03:51:00,67.4,67.1,29.77,West,277,0.0,0.0,99,0.01,,,0.01,VWS V14.01,2013-08-06 08:51:00,
2013-08-06 03:56:00,67.7,67.4,29.77,West,281,0.0,1.0,99,0.01,,,0.01,VWS V14.01,2013-08-06 08:56:00,
2013-08-06 04:00:00,66.9,66.6,29.78,West,276,0.0,1.0,99,0.00,,,0.00,VWS V14.01,2013-08-06 09:00:00,
2013-08-06 04:01:00,67.7,67.4,29.77,West,281,0.0,0.0,99,0.01,,,0.01,VWS V14.01,2013-08-06 09:01:00,
2013-08-06 04:06:00,67.7,67.4,29.76,WNW,287,0.0,0.0,99,0.01,,,0.01,VWS V14.01,2013-08-06 09:06:00,
2013-08-06 04:11:00,67.6,67.3,29.76,WNW,300,0.0,0.0,99,0.01,,,0.01,VWS V14.01,2013-08-06 09:11:00,
2013-08-06 04:16:00,67.5,67.2,29.76,NNE,19,1.0,2.0,99,0.01,,,0.01,VWS V14.01,2013-08-06 09:16:00,
2013-08-06 04:21:00,67.2,66.9,29.76,North,351,1.0,2.0,99,0.01,,,0.01,VWS V14.01,2013-08-06 09:21:00,
2013-08-06 04:26:00,66.8,66.5,29.76,NNW,346,1.0,3.0,99,0.01,,,0.01,VWS V14.01,2013-08-06 09:26:00,
2013-08-06 04:30:00,66.4,66.1,29.77,West,275,0.0,0.0,99,0.01,,,0.01,VWS V14.01,2013-08-06 09:30:00,
2013-08-06 04:31:00,66.4,65.8,29.76,North,354,0.0,2.0,98,0.00,,,0.01,VWS V14.01,2013-08-06 09:31:00,
2013-08-06 04:36:00,66.0,65.4,29.76,NNW,346,0.0,3.0,98,0.00,,,0.01,VWS V14.01,2013-08-06 09:36:00,
2013-08-06 04:41:00,65.8,65.5,29.75,NNW,347,0.0,3.0,99,0.00,,,0.01,VWS V14.01,2013-08-06 09:41:00,
2013-08-06 04:46:00,65.6,65.3,29.75,NNW,347,0.0,3.0,99,0.00,,,0.01,VWS V14.01,2013-08-06 09:46:00,
2013-08-06 04:51:00,65.3,64.7,29.76,NNW,347,0.0,3.0,98,0.00,,,0.01,VWS V14.01,2013-08-06 09:51:00,
2013-08-06 04:56:00,64.9,64.3,29.76,NNW,347,0.0,3.0,98,0.00,,,0.01,VWS V14.01,2013-08-06 09:56:00,
2013-08-06 05:00:00,67.7,67.4,29.77,West,281,0.0,1.0,99,0.01,,,0.01,VWS V14.01,2013-08-06 10:00:00,
2013-08-06 05:01:00,64.5,63.9,29.76,NNW,347,0.0,0.0,98,0.00,,,0.01,VWS V14.01,2013-08-06 10:01:00,
2013-08-06 05:06:00,64.1,63.5,29.76,NNW,347,0.0,0.0,98,0.00,,,0.01,VWS V14.01,2013-08-06 10:06:00,
2013-08-06 05:11:00,63.7,63.1,29.75,NNW,347,0.0,0.0,98,0.00,,,0.01,VWS V14.01,2013-08-06 10:11:00,
2013-08-06 05:16:00,63.4,62.8,29.76,NNW,347,0.0,0.0,98,0.00,,,0.01,VWS V14.01,2013-08-06 10:16:00,
2013-08-06 05:21:00,63.3,63.0,29.76,NNW,347,0.0,0.0,99,0.00,,,0.01,VWS V14.01,2013-08-06 10:21:00,
2013-08-06 05:26:00,63.3,63.0,29.76,NNW,339,0.0,1.0,99,0.00,,,0.01,VWS V14.01,2013-08-06 10:26:00,
2013-08-06 05:30:00,66.4,65.8,29.76,NNW,346,3.0,3.0,98,0.01,,,0.01,VWS V14.01,2013-08-06 10:30:00,
2013-08-06 05:31:00,63.3,63.0,29.76,WNW,284,0.0,0.0,99,0.00,,,0.01,VWS V14.01,2013-08-06 10:31:00,
2013-08-06 05:36:00,63.2,62.9,29.76,WNW,284,0.0,1.0,99,0.00,,,0.01,VWS V14.01,2013-08-06 10:36:00,
2013-08-06 05:41:00,63.4,63.1,29.77,WNW,285,0.0,1.0,99,0.00,,,0.01,VWS V14.01,2013-08-06 10:41:00,
2013-08-06 05:46:00,63.1,62.8,29.77,West,276,0.0,1.0,99,0.00,,,0.01,VWS V14.01,2013-08-06 10:46:00,
2013-08-06 05:51:00,63.3,63.0,29.77,West,276,0.0,1.0,99,0.00,,,0.01,VWS V14.01,2013-08-06 10:51:00,
2013-08-06 05:56:00,63.4,63.1,29.77,West,277,0.0,1.0,99,0.00,,,0.01,VWS V14.01,2013-08-06 10:56:00,
2013-08-06 06:00:00,64.5,63.9,29.76,NNW,347,0.0,3.0,98,0.00,,,0.01,VWS V14.01,2013-08-06 11:00:00,
2013-08-06 06:01:00,63.4,63.1,29.77,West,277,0.0,0.0,99,0.00,,,0.01,VWS V14.01,2013-08-06 11:01:00,
2013-08-06 06:06:00,63.4,63.1,29.77,WNW,284,0.0,1.0,99,0.00,,,0.01,VWS V14.01,2013-08-06 11:06:00,
2013-08-06 06:11:00,63.3,63.0,29.77,WNW,285,0.0,1.0,99,0.00,,,0.01,VWS V14.01,2013-08-06 11:11:00,
2013-08-06 06:16:00,63.1,62.8,29.77,WNW,284,0.0,1.0,99,0.00,,,0.01,VWS V14.01,2013-08-06 11:16:00,
2013-08-06 06:21:00,62.9,62.6,29.77,WNW,284,0.0,1.0,99,0.00,,,0.01,VWS V14.01,2013-08-06 11:21:00,
2013-08-06 06:26:00,62.9,62.6,29.77,WNW,284,0.0,1.0,99,0.00,,,0.01,VWS V14.01,2013-08-06 11:26:00,
2013-08-06 06:30:00,63.3,63.0,29.76,WNW,284,0.0,1.0,99,0.00,,,0.01,VWS V14.01,2013-08-06 11:30:00,
2013-08-06 06:31:00,63.3,63.0,29.78,NW,305,0.0,0.0,99,0.00,,,0.01,VWS V14.01,2013-08-06 11:31:00,
2013-08-06 06:36:00,64.0,63.7,29.79,NNW,347,0.0,2.0,99,0.00,,,0.01,VWS V14.01,2013-08-06 11:36:00,
2013-08-06 06:41:00,64.3,64.0,29.79,North,358,0.0,2.0,99,0.00,,,0.01,VWS V14.01,2013-08-06 11:41:00,
2013-08-06 06:46:00,64.5,64.2,29.78,North,358,0.0,2.0,99,0.00,,,0.01,VWS V14.01,2013-08-06 11:46:00,
2013-08-06 06:51:00,64.5,64.5,29.78,North,359,0.0,2.0,100,0.00,,,0.01,VWS V14.01,2013-08-06 11:51:00,
2013-08-06 06:56:00,64.5,64.2,29.77,North,359,0.0,2.0,99,0.00,,,0.01,VWS V14.01,2013-08-06 11:56:00,
2013-08-06 07:00:00,63.4,63.1,29.77,West,276,0.0,1.0,99,0.00,,,0.01,VWS V14.01,2013-08-06 12:00:00,
2013-08-06 07:01:00,64.6,64.3,29.77,North,359,0.0,0.0,99,0.00,,BKN038,0.01,VWS V14.01,2013-08-06 12:01:00,
2013-08-06 07:06:00,64.6,64.3,29.77,North,358,0.0,1.0,99,0.00,,BKN038,0.01,VWS V14.01,2013-08-06 12:06:00,
2013-08-06 07:11:00,64.7,64.4,29.77,North,358,0.0,1.0,99,0.00,,BKN038,0.01,VWS V14.01,2013-08-06 12:11:00,
2013-08-06 07:16:00,64.8,64.5,29.77,North,357,0.0,1.0,99,0.00,,BKN038,0.01,VWS V14.01,2013-08-06 12:16:00,
2013-08-06 07:21:00,65.0,64.7,29.78,North,356,0.0,1.0,99,0.00,,BKN038,0.01,VWS V14.01,2013-08-06 12:21:00,
2013-08-06 07:26:00,65.1,64.8,29.78,North,356,0.0,1.0,99,0.00,,BKN038,0.01,VWS V14.01,2013-08-06 12:26:00,
2013-08-06 07:30:00,63.3,63.0,29.77,NW,305,0.0,1.0,99,0.00,,,0.01,VWS V14.01,2013-08-06 12:30:00,
2013-08-06 07:31:00,65.2,64.9,29.78,North,356,0.0,0.0,99,0.00,,BKN038,0.01,VWS V14.01,2013-08-06 12:31:00,
2013-08-06 07:36:00,65.5,65.5,29.78,North,357,0.0,0.0,100,0.00,,BKN038,0.01,VWS V14.01,2013-08-06 12:36:00,
2013-08-06 07:41:00,65.4,65.1,29.78,North,356,0.0,0.0,99,0.00,,BKN038,0.01,VWS V14.01,2013-08-06 12:41:00,
2013-08-06 07:46:00,65.5,65.2,29.78,North,356,0.0,0.0,99,0.00,,BKN038,0.01,VWS V14.01,2013-08-06 12:46:00,
2013-08-06 07:51:00,65.8,65.5,29.78,North,356,0.0,0.0,99,0.00,,BKN038,0.01,VWS V14.01,2013-08-06 12:51:00,
2013-08-06 07:56:00,66.3,66.0,29.78,North,357,0.0,0.0,99,0.00,,BKN038,0.01,VWS V14.01,2013-08-06 12:56:00,
2013-08-06 08:00:00,64.6,64.3,29.77,North,358,0.0,2.0,99,0.00,,,0.01,VWS V14.01,2013-08-06 13:00:00,
2013-08-06 08:01:00,67.0,67.0,29.79,North,356,0.0,0.0,100,0.00,,CLR,0.01,VWS V14.01,2013-08-06 13:01:00,
2013-08-06 08:05:00,67.3,67.0,29.78,North,357,0.0,0.0,99,0.00,,CLR,0.01,VWS V14.01,2013-08-06 13:05:00,
2013-08-06 08:10:00,67.5,67.2,29.79,ESE,104,1.0,2.0,99,0.00,,CLR,0.01,VWS V14.01,2013-08-06 13:10:00,
2013-08-06 08:15:00,68.0,67.4,29.79,SE,134,1.0,2.0,98,0.00,,CLR,0.01,VWS V14.01,2013-08-06 13:15:00,
2013-08-06 08:20:00,68.6,66.8,29.79,ESE,110,2.0,2.0,94,0.00,,CLR,0.01,VWS V14.01,2013-08-06 13:20:00,
2013-08-06 08:25:00,69.0,66.3,29.80,ESE,109,2.0,3.0,91,0.00,,CLR,0.01,VWS V14.01,2013-08-06 13:25:00,
2013-08-06 08:30:00,69.6,66.9,29.80,SSE,150,2.0,2.0,91,0.00,,CLR,0.01,VWS V14.01,2013-08-06 13:30:00,
2013-08-06 08:35:00,70.1,67.0,29.80,SSE,150,1.0,3.0,90,0.00,,CLR,0.01,VWS V14.01,2013-08-06 13:35:00,
2013-08-06 08:40:00,70.6,66.6,29.80,SE,135,1.0,3.0,87,0.00,,CLR,0.01,VWS V14.01,2013-08-06 13:40:00,
2013-08-06 08:45:00,70.8,66.4,29.80,ESE,123,0.0,3.0,86,0.00,,CLR,0.01,VWS V14.01,2013-08-06 13:45:00,
2013-08-06 08:50:00,71.2,65.8,29.81,SE,136,0.0,3.0,83,0.00,,CLR,0.01,VWS V14.01,2013-08-06 13:50:00,
2013-08-06 08:55:00,71.6,65.8,29.81,SE,136,0.0,3.0,82,0.00,,CLR,0.01,VWS V14.01,2013-08-06 13:55:00,
2013-08-06 09:00:00,72.3,66.5,29.81,ESE,113,0.0,3.0,82,0.00,,CLR,0.01,VWS V14.01,2013-08-06 14:00:00,
2013-08-06 09:05:00,72.3,66.5,29.81,SE,141,1.0,1.0,82,0.00,,CLR,0.01,VWS V14.01,2013-08-06 14:05:00,
2013-08-06 09:10:00,72.3,66.8,29.81,ESE,103,0.0,1.0,83,0.00,,CLR,0.01,VWS V14.01,2013-08-06 14:10:00,
2013-08-06 09:15:00,72.8,67.3,29.81,ESE,103,0.0,1.0,83,0.00,,CLR,0.01,VWS V14.01,2013-08-06 14:15:00,
2013-08-06 09:20:00,72.8,66.6,29.81,ESE,117,0.0,2.0,81,0.00,,CLR,0.01,VWS V14.01,2013-08-06 14:20:00,
2013-08-06 09:25:00,72.8,67.3,29.81,ESE,123,0.0,2.0,83,0.00,,CLR,0.01,VWS V14.01,2013-08-06 14:25:00,
2013-08-06 09:30:00,73.0,67.5,29.81,SSE,162,1.0,2.0,83,0.00,,CLR,0.01,VWS V14.01,2013-08-06 14:30:00,
2013-08-06 09:35:00,73.2,66.7,29.81,SSE,160,1.0,3.0,80,0.00,,CLR,0.01,VWS V14.01,2013-08-06 14:35:00,
2013-08-06 09:40:00,73.1,66.9,29.81,SE,134,3.0,4.0,81,0.00,,CLR,0.01,VWS V14.01,2013-08-06 14:40:00,
2013-08-06 09:45:00,73.0,67.2,29.81,SE,125,4.0,5.0,82,0.00,,CLR,0.01,VWS V14.01,2013-08-06 14:45:00,
2013-08-06 09:50:00,73.0,68.2,29.81,SE,141,3.0,5.0,85,0.00,,CLR,0.01,VWS V14.01,2013-08-06 14:50:00,
2013-08-06 09:55:00,73.2,68.8,29.81,SE,146,4.0,6.0,86,0.00,,CLR,0.01,VWS V14.01,2013-08-06 14:55:00,
2013-08-06 10:00:00,73.3,68.2,29.80,SSE,155,4.0,6.0,84,0.00,,CLR,0.01,VWS V14.01,2013-08-06 15:00:00,
2013-08-06 10:05:00,73.3,68.2,29.80,SE,126,5.0,5.0,84,0.00,,CLR,0.01,VWS V14.01,2013-08-06 15:05:00,
2013-08-06 10:10:00,73.3,68.5,29.79,East,100,5.0,6.0,85,0.00,,CLR,0.01,VWS V14.01,2013-08-06 15:10:00,
2013-08-06 10:15:00,73.2,67.7,29.78,ESE,111,4.0,6.0,83,0.00,,CLR,0.01,VWS V14.01,2013-08-06 15:15:00,
2013-08-06 10:20:00,73.3,68.2,29.78,ESE,123,2.0,6.0,84,0.00,,CLR,0.01,VWS V14.01,2013-08-06 15:20:00,
2013-08-06 10:25:00,73.4,68.6,29.78,SE,146,4.0,6.0,85,0.00,,CLR,0.01,VWS V14.01,2013-08-06 15:25:00,
2013-08-06 10:30:00,73.8,69.0,29.77,ESE,118,5.0,6.0,85,0.00,,CLR,0.01,VWS V14.01,2013-08-06 15:30:00,
2013-08-06 10:35:00,74.0,68.5,29.77,SE,126,4.0,7.0,83,0.00,,CLR,0.01,VWS V14.01,2013-08-06 15:35:00,
2013-08-06 10:40:00,74.2,69.1,29.77,ESE,121,5.0,7.0,84,0.00,,CLR,0.01,VWS V14.01,2013-08-06 15:40:00,
2013-08-06 10:45:00,74.3,68.4,29.77,SSE,154,6.0,8.0,82,0.00,,CLR,0.01,VWS V14.01,2013-08-06 15:45:00,
2013-08-06 10:50:00,74.5,69.3,29.77,SSE,153,8.0,8.0,84,0.00,,CLR,0.01,VWS V14.01,2013-08-06 15:50:00,
2013-08-06 10:55:00,74.5,69.0,29.76,SE,140,7.0,9.0,83,0.00,,CLR,0.01,VWS V14.01,2013-08-06 15:55:00,
2013-08-06 11:00:00,74.7,68.5,29.76,SSE,165,6.0,10.0,81,0.00,,CLR,0.01,VWS V14.01,2013-08-06 16:00:00,
2013-08-06 11:05:00,75.0,68.8,29.75,SE,131,10.0,12.0,81,0.00,,CLR,0.01,VWS V14.01,2013-08-06 16:05:00,
2013-08-06 11:10:00,75.2,69.0,29.75,SE,137,5.0,12.0,81,0.00,,CLR,0.01,VWS V14.01,2013-08-06 16:10:00,
2013-08-06 11:15:00,75.2,68.2,29.75,SW,222,5.0,12.0,79,0.00,,CLR,0.01,VWS V14.01,2013-08-06 16:15:00,
2013-08-06 11:20:00,75.4,69.2,29.75,SE,139,11.0,12.0,81,0.00,,CLR,0.01,VWS V14.01,2013-08-06 16:20:00,
2013-08-06 11:25:00,76.0,69.0,29.74,SSE,160,8.0,14.0,79,0.00,,CLR,0.01,VWS V14.01,2013-08-06 16:25:00,
2013-08-06 11:30:00,76.4,69.4,29.74,SSE,150,10.0,14.0,79,0.00,,CLR,0.01,VWS V14.01,2013-08-06 16:30:00,
2013-08-06 11:35:00,76.5,69.5,29.73,SSE,162,8.0,13.0,79,0.00,,CLR,0.01,VWS V14.01,2013-08-06 16:35:00,
2013-08-06 11:40:00,76.6,69.6,29.73,SSE,150,10.0,14.0,79,0.00,,CLR,0.01,VWS V14.01,2013-08-06 16:40:00,
2013-08-06 11:45:00,76.7,69.7,29.73,SSW,210,6.0,14.0,79,0.00,,CLR,0.01,VWS V14.01,2013-08-06 16:45:00,
2013-08-06 11:50:00,76.6,69.6,29.72,ESE,120,10.0,15.0,79,0.00,,CLR,0.01,VWS V14.01,2013-08-06 16:50:00,
2013-08-06 11:55:00,76.4,69.8,29.73,SE,129,11.0,15.0,80,0.00,,CLR,0.01,VWS V14.01,2013-08-06 16:55:00,
2013-08-06 12:00:00,76.6,70.7,29.73,SE,125,8.0,15.0,82,0.00,,CLR,0.01,VWS V14.01,2013-08-06 17:00:00,
2013-08-06 12:05:00,76.8,70.2,29.73,ESE,109,7.0,9.0,80,0.00,,CLR,0.01,VWS V14.01,2013-08-06 17:05:00,
2013-08-06 12:10:00,76.8,70.5,29.74,ESE,117,3.0,9.0,81,0.00,,CLR,0.01,VWS V14.01,2013-08-06 17:10:00,
2013-08-06 12:15:00,77.1,70.5,29.74,ESE,105,2.0,9.0,80,0.00,,CLR,0.01,VWS V14.01,2013-08-06 17:15:00,
2013-08-06 12:20:00,77.4,70.4,29.74,ESE,108,6.0,9.0,79,0.00,,CLR,0.01,VWS V14.01,2013-08-06 17:20:00,
2013-08-06 12:25:00,77.9,68.9,29.74,ESE,120,6.0,9.0,74,0.00,,CLR,0.01,VWS V14.01,2013-08-06 17:25:00,
2013-08-06 12:27:00,78.1,69.1,29.74,SSE,155,6.0,9.0,74,0.00,,CLR,0.01,VWS V14.01,2013-08-06 17:27:00,
2013-08-06 12:30:00,76.4,69.4,29.74,SE,140,9.0,14.0,79,0.00,,,0.01,VWS V14.01,2013-08-06 17:30:00,
2013-08-06 12:32:00,78.9,68.7,29.74,SSE,155,4.0,8.0,71,0.00,,CLR,0.01,VWS V14.01,2013-08-06 17:32:00,
2013-08-06 12:37:00,79.3,68.3,29.74,SE,134,3.0,8.0,69,0.00,,CLR,0.01,VWS V14.01,2013-08-06 17:37:00,
2013-08-06 12:42:00,79.8,66.6,29.74,West,260,3.0,8.0,64,0.00,,CLR,0.01,VWS V14.01,2013-08-06 17:42:00,
2013-08-06 12:47:00,80.1,67.3,29.74,SSE,153,5.0,8.0,65,0.00,,CLR,0.01,VWS V14.01,2013-08-06 17:47:00,
2013-08-06 12:52:00,80.4,68.4,29.74,SW,224,5.0,8.0,67,0.00,,CLR,0.01,VWS V14.01,2013-08-06 17:52:00,
2013-08-06 12:57:00,80.5,67.7,29.74,East,96,4.0,8.0,65,0.00,,CLR,0.01,VWS V14.01,2013-08-06 17:57:00,
2013-08-06 13:00:00,76.6,70.7,29.73,SE,146,8.0,15.0,82,0.00,,,0.01,VWS V14.01,2013-08-06 18:00:00,
2013-08-06 13:02:00,80.3,65.6,29.74,SSE,168,4.0,6.0,61,0.00,,CLR,0.01,VWS V14.01,2013-08-06 18:02:00,
2013-08-06 13:07:00,80.5,66.3,29.73,SSE,159,3.0,8.0,62,0.00,,CLR,0.01,VWS V14.01,2013-08-06 18:07:00,
2013-08-06 13:12:00,80.4,67.1,29.74,SW,235,4.0,9.0,64,0.00,,CLR,0.01,VWS V14.01,2013-08-06 18:12:00,
2013-08-06 13:17:00,80.6,66.8,29.74,South,173,3.0,9.0,63,0.00,,CLR,0.01,VWS V14.01,2013-08-06 18:17:00,
2013-08-06 13:22:00,80.8,67.5,29.74,SW,231,5.0,9.0,64,0.00,,CLR,0.01,VWS V14.01,2013-08-06 18:22:00,
2013-08-06 13:27:00,81.1,68.2,29.74,SSW,207,3.0,9.0,65,0.00,,CLR,0.01,VWS V14.01,2013-08-06 18:27:00,
2013-08-06 13:30:00,78.6,69.2,29.74,ESE,110,8.0,9.0,73,0.00,,,0.01,VWS V14.01,2013-08-06 18:30:00,
2013-08-06 13:32:00,81.3,68.0,29.74,SE,136,6.0,9.0,64,0.00,,CLR,0.01,VWS V14.01,2013-08-06 18:32:00,
2013-08-06 13:37:00,81.4,69.0,29.73,SE,136,6.0,9.0,66,0.00,,CLR,0.01,VWS V14.01,2013-08-06 18:37:00,
2013-08-06 13:42:00,81.5,69.1,29.74,SSW,211,2.0,9.0,66,0.00,,CLR,0.01,VWS V14.01,2013-08-06 18:42:00,
2013-08-06 13:47:00,81.6,68.7,29.74,SSW,193,5.0,11.0,65,0.00,,CLR,0.01,VWS V14.01,2013-08-06 18:47:00,
2013-08-06 13:52:00,81.9,69.9,29.74,SSW,205,4.0,11.0,67,0.00,,CLR,0.01,VWS V14.01,2013-08-06 18:52:00,
2013-08-06 13:57:00,82.1,69.6,29.74,SW,231,7.0,11.0,66,0.00,,CLR,0.01,VWS V14.01,2013-08-06 18:57:00,
2013-08-06 14:00:00,80.2,64.6,29.74,ESE,123,5.0,8.0,59,0.00,,,0.01,VWS V14.01,2013-08-06 19:00:00,
2013-08-06 14:02:00,81.6,69.6,29.74,WSW,251,6.0,8.0,67,0.00,,CLR,0.01,VWS V14.01,2013-08-06 19:02:00,
2013-08-06 14:07:00,81.4,71.1,29.74,SW,221,9.0,9.0,71,0.00,,CLR,0.01,VWS V14.01,2013-08-06 19:07:00,
2013-08-06 14:12:00,81.6,70.4,29.73,SE,146,5.0,10.0,69,0.00,,CLR,0.01,VWS V14.01,2013-08-06 19:12:00,
2013-08-06 14:17:00,81.9,68.5,29.73,SSW,207,6.0,10.0,64,0.00,,CLR,0.01,VWS V14.01,2013-08-06 19:17:00,
2013-08-06 14:22:00,82.3,71.5,29.73,WSW,247,7.0,10.0,70,0.00,,CLR,0.01,VWS V14.01,2013-08-06 19:22:00,
2013-08-06 14:27:00,82.3,68.9,29.73,WSW,257,9.0,10.0,64,0.00,,CLR,0.01,VWS V14.01,2013-08-06 19:27:00,
2013-08-06 14:30:00,81.3,68.9,29.74,SSE,148,7.0,9.0,66,0.00,,,0.01,VWS V14.01,2013-08-06 19:30:00,
2013-08-06 14:32:00,82.5,70.9,29.73,WSW,248,4.0,5.0,68,0.00,,CLR,0.01,VWS V14.01,2013-08-06 19:32:00,
2013-08-06 14:37:00,82.5,69.6,29.73,SW,215,6.0,10.0,65,0.00,,CLR,0.01,VWS V14.01,2013-08-06 19:37:00,
2013-08-06 14:42:00,82.4,69.9,29.73,WSW,243,5.0,10.0,66,0.00,,CLR,0.01,VWS V14.01,2013-08-06 19:42:00,
2013-08-06 14:47:00,82.8,70.7,29.73,WSW,252,2.0,10.0,67,0.00,,CLR,0.01,VWS V14.01,2013-08-06 19:47:00,
2013-08-06 14:52:00,83.0,69.6,29.73,SW,224,6.0,10.0,64,0.00,,CLR,0.01,VWS V14.01,2013-08-06 19:52:00,
2013-08-06 14:57:00,83.2,69.8,29.73,SSW,197,8.0,11.0,64,0.00,,CLR,0.01,VWS V14.01,2013-08-06 19:57:00,
2013-08-06 15:00:00,81.8,69.3,29.74,SW,235,7.0,11.0,66,0.00,,,0.01,VWS V14.01,2013-08-06 20:00:00,
2013-08-06 15:02:00,83.2,70.7,29.73,WSW,250,4.0,9.0,66,0.00,,CLR,0.01,VWS V14.01,2013-08-06 20:02:00,
2013-08-06 15:07:00,83.5,69.6,29.73,SSE,151,3.0,9.0,63,0.00,,CLR,0.01,VWS V14.01,2013-08-06 20:07:00,
2013-08-06 15:12:00,83.7,70.7,29.73,SW,229,8.0,9.0,65,0.00,,CLR,0.01,VWS V14.01,2013-08-06 20:12:00,
2013-08-06 15:17:00,83.6,68.3,29.73,WSW,242,5.0,9.0,60,0.00,,CLR,0.01,VWS V14.01,2013-08-06 20:17:00,
2013-08-06 15:22:00,83.4,69.5,29.73,West,259,4.0,9.0,63,0.00,,CLR,0.01,VWS V14.01,2013-08-06 20:22:00,
2013-08-06 15:27:00,83.4,68.6,29.73,WSW,246,5.0,13.0,61,0.00,,CLR,0.01,VWS V14.01,2013-08-06 20:27:00,
2013-08-06 15:30:00,82.4,69.9,29.73,WSW,252,4.0,10.0,66,0.00,,,0.01,VWS V14.01,2013-08-06 20:30:00,
2013-08-06 15:32:00,83.5,69.6,29.73,WNW,293,2.0,5.0,63,0.00,,CLR,0.01,VWS V14.01,2013-08-06 20:32:00,
2013-08-06 15:37:00,83.7,69.3,29.73,WSW,245,6.0,11.0,62,0.00,,CLR,0.01,VWS V14.01,2013-08-06 20:37:00,
2013-08-06 15:42:00,83.8,68.0,29.73,SW,217,9.0,11.0,59,0.00,,CLR,0.01,VWS V14.01,2013-08-06 20:42:00,
2013-08-06 15:47:00,83.8,67.0,29.73,WSW,240,7.0,11.0,57,0.00,,CLR,0.01,VWS V14.01,2013-08-06 20:47:00,
2013-08-06 15:52:00,83.7,66.9,29.73,West,266,8.0,12.0,57,0.00,,CLR,0.01,VWS V14.01,2013-08-06 20:52:00,
2013-08-06 15:57:00,83.7,67.9,29.73,WSW,253,9.0,12.0,59,0.00,,CLR,0.01,VWS V14.01,2013-08-06 20:57:00,
2013-08-06 16:00:00,83.1,70.6,29.73,SSE,160,6.0,11.0,66,0.00,,,0.01,VWS V14.01,2013-08-06 21:00:00,
2013-08-06 16:02:00,83.7,67.9,29.73,West,273,6.0,10.0,59,0.00,,CLR,0.01,VWS V14.01,2013-08-06 21:02:00,
2013-08-06 16:07:00,83.8,68.4,29.72,WSW,245,5.0,11.0,60,0.00,,CLR,0.01,VWS V14.01,2013-08-06 21:07:00,
2013-08-06 16:12:00,83.9,67.6,29.72,West,270,9.0,12.0,58,0.00,,CLR,0.01,VWS V14.01,2013-08-06 21:12:00,
2013-08-06 16:17:00,83.8,68.0,29.72,SW,222,7.0,12.0,59,0.00,,CLR,0.01,VWS V14.01,2013-08-06 21:17:00,
2013-08-06 16:22:00,83.9,68.1,29.72,West,269,5.0,12.0,59,0.00,,CLR,0.01,VWS V14.01,2013-08-06 21:22:00,
2013-08-06 16:27:00,84.0,69.6,29.72,WSW,248,4.0,12.0,62,0.00,,CLR,0.01,VWS V14.01,2013-08-06 21:27:00,
2013-08-06 16:30:00,83.4,68.6,29.73,SW,224,4.0,13.0,61,0.00,,,0.01,VWS V14.01,2013-08-06 21:30:00,
2013-08-06 16:32:00,84.0,68.1,29.72,SW,215,5.0,9.0,59,0.00,,CLR,0.01,VWS V14.01,2013-08-06 21:32:00,
2013-08-06 16:37:00,83.9,69.0,29.72,West,273,4.0,9.0,61,0.00,,CLR,0.01,VWS V14.01,2013-08-06 21:37:00,
2013-08-06 16:42:00,83.8,68.0,29.72,West,262,5.0,12.0,59,0.00,,CLR,0.01,VWS V14.01,2013-08-06 21:42:00,
2013-08-06 16:47:00,83.8,68.9,29.72,WNW,295,3.0,12.0,61,0.00,,CLR,0.01,VWS V14.01,2013-08-06 21:47:00,
2013-08-06 16:52:00,84.0,69.6,29.72,WSW,252,5.0,12.0,62,0.00,,CLR,0.01,VWS V14.01,2013-08-06 21:52:00,
2013-08-06 16:57:00,83.9,69.0,29.72,WNW,295,3.0,12.0,61,0.00,,CLR,0.01,VWS V14.01,2013-08-06 21:57:00,
2013-08-06 17:00:00,83.7,67.9,29.73,SSW,208,6.0,12.0,59,0.00,,,0.01,VWS V14.01,2013-08-06 22:00:00,
2013-08-06 17:02:00,83.9,70.0,29.72,SW,235,6.0,8.0,63,0.00,,CLR,0.01,VWS V14.01,2013-08-06 22:02:00,
2013-08-06 17:07:00,83.9,69.5,29.72,West,262,6.0,8.0,62,0.00,,CLR,0.01,VWS V14.01,2013-08-06 22:07:00,
2013-08-06 17:12:00,83.9,69.0,29.72,SW,236,5.0,9.0,61,0.00,,CLR,0.01,VWS V14.01,2013-08-06 22:12:00,
2013-08-06 17:17:00,83.9,69.0,29.72,WNW,285,8.0,10.0,61,0.00,,CLR,0.01,VWS V14.01,2013-08-06 22:17:00,
2013-08-06 17:22:00,83.8,69.4,29.72,West,273,8.0,12.0,62,0.00,,CLR,0.01,VWS V14.01,2013-08-06 22:22:00,
2013-08-06 17:27:00,83.9,70.4,29.72,West,266,5.0,12.0,64,0.00,,CLR,0.01,VWS V14.01,2013-08-06 22:27:00,
2013-08-06 17:30:00,84.0,68.6,29.72,WSW,252,6.0,12.0,60,0.00,,,0.01,VWS V14.01,2013-08-06 22:30:00,
2013-08-06 17:32:00,83.9,69.0,29.72,West,276,8.0,8.0,61,0.00,,CLR,0.01,VWS V14.01,2013-08-06 22:32:00,
2013-08-06 17:37:00,83.9,68.5,29.72,SW,235,4.0,9.0,60,0.00,,CLR,0.01,VWS V14.01,2013-08-06 22:37:00,
2013-08-06 17:42:00,83.8,68.4,29.72,SW,235,6.0,11.0,60,0.00,,CLR,0.01,VWS V14.01,2013-08-06 22:42:00,
2013-08-06 17:46:00,83.6,68.7,29.72,WNW,283,8.0,11.0,61,0.00,,CLR,0.01,VWS V14.01,2013-08-06 22:46:00,
2013-08-06 17:51:00,83.4,69.0,29.72,WSW,239,5.0,11.0,62,0.00,,CLR,0.01,VWS V14.01,2013-08-06 22:51:00,
2013-08-06 17:56:00,83.3,68.9,29.72,WNW,284,3.0,11.0,62,0.00,,CLR,0.01,VWS V14.01,2013-08-06 22:56:00,
2013-08-06 18:00:00,83.9,70.0,29.72,WSW,254,5.0,12.0,63,0.00,,,0.01,VWS V14.01,2013-08-06 23:00:00,
2013-08-06 18:02:00,83.3,68.9,29.72,WSW,256,7.0,7.0,62,0.00,,CLR,0.01,VWS V14.01,2013-08-06 23:02:00,
2013-08-06 18:06:00,83.4,69.0,29.71,SW,228,5.0,9.0,62,0.00,,CLR,0.01,VWS V14.01,2013-08-06 23:06:00,
2013-08-06 18:11:00,83.3,69.9,29.71,SW,225,4.0,9.0,64,0.00,,CLR,0.01,VWS V14.01,2013-08-06 23:11:00,
2013-08-06 18:16:00,83.2,69.8,29.71,WSW,239,3.0,9.0,64,0.00,,CLR,0.01,VWS V14.01,2013-08-06 23:16:00,
2013-08-06 18:21:00,82.8,68.9,29.71,WSW,246,3.0,9.0,63,0.00,,CLR,0.01,VWS V14.01,2013-08-06 23:21:00,
2013-08-06 18:26:00,82.7,69.3,29.71,West,276,3.0,9.0,64,0.00,,CLR,0.01,VWS V14.01,2013-08-06 23:26:00,
2013-08-06 18:30:00,84.0,69.1,29.72,WSW,247,6.0,12.0,61,0.00,,,0.01,VWS V14.01,2013-08-06 23:30:00,
2013-08-06 18:31:00,82.7,68.8,29.71,WNW,290,3.0,7.0,63,0.00,,CLR,0.01,VWS V14.01,2013-08-06 23:31:00,
2013-08-06 18:36:00,82.6,68.7,29.71,West,262,3.0,7.0,63,0.00,,CLR,0.01,VWS V14.01,2013-08-06 23:36:00,
2013-08-06 18:41:00,82.5,68.6,29.71,SW,226,6.0,7.0,63,0.00,,CLR,0.01,VWS V14.01,2013-08-06 23:41:00,
2013-08-06 18:46:00,82.5,69.1,29.71,West,281,4.0,7.0,64,0.00,,CLR,0.01,VWS V14.01,2013-08-06 23:46:00,
2013-08-06 18:51:00,82.4,68.6,29.71,WSW,255,3.0,7.0,63,0.00,,CLR,0.01,VWS V14.01,2013-08-06 23:51:00,
2013-08-06 18:56:00,82.3,68.9,29.71,West,281,4.0,7.0,64,0.00,,CLR,0.01,VWS V14.01,2013-08-06 23:56:00,
2013-08-06 19:00:00,83.3,68.9,29.71,WSW,252,2.0,11.0,62,0.00,,,0.01,VWS V14.01,2013-08-07 00:00:00,
2013-08-06 19:01:00,82.1,68.7,29.70,WSW,249,4.0,6.0,64,0.00,,CLR,0.01,VWS V14.01,2013-08-07 00:01:00,
2013-08-06 19:06:00,82.0,69.1,29.71,WSW,242,5.0,6.0,65,0.00,,CLR,0.01,VWS V14.01,2013-08-07 00:06:00,
2013-08-06 19:11:00,81.9,69.4,29.70,WSW,250,2.0,6.0,66,0.00,,CLR,0.01,VWS V14.01,2013-08-07 00:11:00,
2013-08-06 19:16:00,81.7,69.7,29.70,WSW,249,1.0,6.0,67,0.00,,CLR,0.01,VWS V14.01,2013-08-07 00:16:00,
2013-08-06 19:21:00,81.6,70.0,29.70,WSW,243,1.0,6.0,68,0.00,,CLR,0.01,VWS V14.01,2013-08-07 00:21:00,
2013-08-06 19:26:00,81.3,69.7,29.70,WSW,248,2.0,6.0,68,0.00,,CLR,0.01,VWS V14.01,2013-08-07 00:26:00,
2013-08-06 19:30:00,82.7,68.8,29.71,West,266,3.0,9.0,63,0.00,,,0.01,VWS V14.01,2013-08-07 00:30:00,
2013-08-06 19:31:00,81.1,69.6,29.70,SW,223,1.0,5.0,68,0.00,,CLR,0.01,VWS V14.01,2013-08-07 00:31:00,
2013-08-06 19:36:00,80.9,69.8,29.69,WSW,238,2.0,5.0,69,0.00,,CLR,0.01,VWS V14.01,2013-08-07 00:36:00,
2013-08-06 19:41:00,80.5,69.4,29.69,West,259,2.0,5.0,69,0.00,,CLR,0.01,VWS V14.01,2013-08-07 00:41:00,
2013-08-06 19:46:00,80.0,68.9,29.69,WSW,249,4.0,5.0,69,0.00,,CLR,0.01,VWS V14.01,2013-08-07 00:46:00,
2013-08-06 19:51:00,79.5,68.9,29.69,West,263,3.0,6.0,70,0.00,,CLR,0.01,VWS V14.01,2013-08-07 00:51:00,
2013-08-06 19:56:00,79.2,68.6,29.68,SW,236,4.0,6.0,70,0.00,,CLR,0.01,VWS V14.01,2013-08-07 00:56:00,
2013-08-06 20:00:00,82.2,69.3,29.71,WSW,239,2.0,7.0,65,0.00,,,0.01,VWS V14.01,2013-08-07 01:00:00,
2013-08-06 20:01:00,78.7,68.5,29.68,WSW,248,2.0,4.0,71,0.00,,CLR,0.01,VWS V14.01,2013-08-07 01:01:00,
2013-08-06 20:06:00,78.1,68.3,29.69,WSW,243,1.0,4.0,72,0.00,,CLR,0.01,VWS V14.01,2013-08-07 01:06:00,
2013-08-06 20:11:00,77.8,68.5,29.69,West,273,1.0,4.0,73,0.00,,CLR,0.01,VWS V14.01,2013-08-07 01:11:00,
2013-08-06 20:16:00,77.6,67.9,29.69,WSW,248,1.0,4.0,72,0.00,,CLR,0.01,VWS V14.01,2013-08-07 01:16:00,
2013-08-06 20:21:00,77.5,67.8,29.69,SW,228,2.0,5.0,72,0.00,,CLR,0.01,VWS V14.01,2013-08-07 01:21:00,
2013-08-06 20:26:00,77.4,68.1,29.68,WSW,249,3.0,5.0,73,0.00,,CLR,0.01,VWS V14.01,2013-08-07 01:26:00,
2013-08-06 20:30:00,81.2,69.6,29.70,WSW,246,2.0,6.0,68,0.00,,,0.01,VWS V14.01,2013-08-07 01:30:00,
2013-08-06 20:31:00,77.3,68.0,29.68,WSW,246,3.0,3.0,73,0.00,,CLR,0.01,VWS V14.01,2013-08-07 01:31:00,
2013-08-06 20:36:00,77.1,67.8,29.69,WSW,253,3.0,4.0,73,0.00,,CLR,0.01,VWS V14.01,2013-08-07 01:36:00,
2013-08-06 20:41:00,76.9,68.0,29.69,WSW,253,5.0,5.0,74,0.00,,CLR,0.01,VWS V14.01,2013-08-07 01:41:00,
2013-08-06 20:46:00,76.6,68.1,29.69,West,277,2.0,5.0,75,0.00,,CLR,0.01,VWS V14.01,2013-08-07 01:46:00,
2013-08-06 20:51:00,76.4,67.9,29.69,WNW,286,3.0,5.0,75,0.00,,CLR,0.01,VWS V14.01,2013-08-07 01:51:00,
2013-08-06 20:56:00,76.2,68.1,29.70,WSW,257,1.0,5.0,76,0.00,,CLR,0.01,VWS V14.01,2013-08-07 01:56:00,
2013-08-06 21:00:00,78.8,68.6,29.68,West,264,3.0,6.0,71,0.00,,,0.01,VWS V14.01,2013-08-07 02:00:00,
2013-08-06 21:01:00,75.9,68.2,29.70,WNW,284,1.0,5.0,77,0.00,,CLR,0.01,VWS V14.01,2013-08-07 02:01:00,
2013-08-06 21:06:00,75.5,68.2,29.71,West,281,2.0,5.0,78,0.00,,CLR,0.01,VWS V14.01,2013-08-07 02:06:00,
2013-08-06 21:11:00,75.2,68.2,29.71,West,260,3.0,5.0,79,0.00,,CLR,0.01,VWS V14.01,2013-08-07 02:11:00,
2013-08-06 21:16:00,74.9,67.9,29.71,WSW,250,3.0,5.0,79,0.00,,CLR,0.01,VWS V14.01,2013-08-07 02:16:00,
2013-08-06 21:21:00,74.8,68.2,29.71,West,270,2.0,6.0,80,0.00,,CLR,0.01,VWS V14.01,2013-08-07 02:21:00,
2013-08-06 21:26:00,74.6,68.0,29.71,WSW,245,2.0,6.0,80,0.00,,CLR,0.01,VWS V14.01,2013-08-07 02:26:00,
2013-08-06 21:30:00,77.3,68.0,29.68,WSW,256,2.0,5.0,73,0.00,,,0.01,VWS V14.01,2013-08-07 02:30:00,
2013-08-06 21:31:00,74.5,67.9,29.71,West,281,2.0,4.0,80,0.00,,CLR,0.01,VWS V14.01,2013-08-07 02:31:00,
2013-08-06 21:36:00,74.5,67.9,29.71,WSW,252,4.0,4.0,80,0.00,,CLR,0.01,VWS V14.01,2013-08-07 02:36:00,
2013-08-06 21:41:00,74.5,67.9,29.71,West,278,1.0,5.0,80,0.00,,CLR,0.01,VWS V14.01,2013-08-07 02:41:00,
2013-08-06 21:46:00,74.3,67.7,29.71,West,269,1.0,5.0,80,0.00,,CLR,0.01,VWS V14.01,2013-08-07 02:46:00,
2013-08-06 21:51:00,74.3,67.7,29.72,West,278,3.0,5.0,80,0.00,,CLR,0.01,VWS V14.01,2013-08-07 02:51:00,
2013-08-06 21:56:00,74.3,67.7,29.72,WSW,238,3.0,6.0,80,0.00,,CLR,0.01,VWS V14.01,2013-08-07 02:56:00,
2013-08-06 22:00:00,75.9,68.2,29.70,WSW,252,4.0,5.0,77,0.00,,,0.01,VWS V14.01,2013-08-07 03:00:00,
2013-08-06 22:01:00,74.1,67.5,29.72,WNW,283,3.0,4.0,80,0.00,,CLR,0.01,VWS V14.01,2013-08-07 03:01:00,
2013-08-06 22:06:00,74.2,67.6,29.72,West,281,2.0,6.0,80,0.00,,CLR,0.01,VWS V14.01,2013-08-07 03:06:00,
2013-08-06 22:11:00,74.1,67.5,29.72,West,276,3.0,7.0,80,0.00,,CLR,0.01,VWS V14.01,2013-08-07 03:11:00,
2013-08-06 22:16:00,73.7,67.5,29.72,West,274,2.0,7.0,81,0.00,,CLR,0.01,VWS V14.01,2013-08-07 03:16:00,
2013-08-06 22:21:00,73.5,67.3,29.72,West,264,1.0,7.0,81,0.00,,CLR,0.01,VWS V14.01,2013-08-07 03:21:00,
2013-08-06 22:26:00,73.4,67.2,29.72,WSW,256,2.0,7.0,81,0.00,,CLR,0.01,VWS V14.01,2013-08-07 03:26:00,
2013-08-06 22:30:00,74.5,67.9,29.71,West,259,2.0,6.0,80,0.00,,,0.01,VWS V14.01,2013-08-07 03:30:00,
2013-08-06 22:31:00,73.2,67.4,29.72,West,278,3.0,4.0,82,0.00,,CLR,0.01,VWS V14.01,2013-08-07 03:31:00,
2013-08-06 22:36:00,72.9,67.4,29.73,WSW,245,4.0,4.0,83,0.00,,CLR,0.01,VWS V14.01,2013-08-07 03:36:00,
2013-08-06 22:41:00,72.8,67.3,29.73,West,271,3.0,7.0,83,0.00,,CLR,0.01,VWS V14.01,2013-08-07 03:41:00,
2013-08-06 22:46:00,72.9,67.4,29.73,WSW,245,3.0,7.0,83,0.00,,CLR,0.01,VWS V14.01,2013-08-07 03:46:00,
2013-08-06 22:51:00,72.8,67.3,29.73,WSW,239,2.0,7.0,83,0.00,,CLR,0.01,VWS V14.01,2013-08-07 03:51:00,
2013-08-06 22:56:00,72.7,67.2,29.73,WSW,252,2.0,7.0,83,0.00,,CLR,0.01,VWS V14.01,2013-08-07 03:56:00,
2013-08-06 23:00:00,74.2,67.6,29.72,WSW,255,4.0,6.0,80,0.00,,,0.01,VWS V14.01,2013-08-07 04:00:00,
2013-08-06 23:01:00,72.6,67.5,29.73,West,274,2.0,2.0,84,0.00,,FEW120,0.01,VWS V14.01,2013-08-07 04:01:00,
2013-08-06 23:06:00,72.6,67.5,29.74,West,263,3.0,5.0,84,0.00,,FEW120,0.01,VWS V14.01,2013-08-07 04:06:00,
2013-08-06 23:11:00,72.7,67.2,29.74,WSW,243,4.0,6.0,83,0.00,,FEW120,0.01,VWS V14.01,2013-08-07 04:11:00,
2013-08-06 23:16:00,72.8,67.3,29.74,WSW,245,3.0,7.0,83,0.00,,FEW120,0.01,VWS V14.01,2013-08-07 04:16:00,
2013-08-06 23:21:00,72.8,67.3,29.74,WSW,250,2.0,7.0,83,0.00,,FEW120,0.01,VWS V14.01,2013-08-07 04:21:00,
2013-08-06 23:26:00,72.7,67.2,29.74,West,263,1.0,7.0,83,0.00,,FEW120,0.01,VWS V14.01,2013-08-07 04:26:00,
2013-08-06 23:30:00,73.3,67.5,29.72,SW,225,1.0,7.0,82,0.00,,,0.01,VWS V14.01,2013-08-07 04:30:00,
2013-08-06 23:31:00,72.7,67.6,29.74,WSW,256,4.0,5.0,84,0.00,,FEW120,0.01,VWS V14.01,2013-08-07 04:31:00,
2013-08-06 23:36:00,72.8,67.3,29.74,WSW,249,4.0,7.0,83,0.00,,FEW120,0.01,VWS V14.01,2013-08-07 04:36:00,
2013-08-06 23:41:00,72.9,67.4,29.74,West,262,4.0,7.0,83,0.00,,FEW120,0.01,VWS V14.01,2013-08-07 04:41:00,
2013-08-06 23:46:00,72.9,67.4,29.74,WSW,252,4.0,7.0,83,0.00,,FEW120,0.01,VWS V14.01,2013-08-07 04:46:00,
2013-08-06 23:51:00,72.8,67.3,29.74,West,264,5.0,7.0,83,0.00,,FEW120,0.01,VWS V14.01,2013-08-07 04:51:00,
2013-08-06 23:56:00,72.8,67.7,29.74,West,262,5.0,7.0,84,0.00,,FEW120,0.01,VWS V14.01,2013-08-07 04:56:00,